Home > Weather > Provo > Past weeks

Flag for U.S.A. Weather for the Past 2 Weeks in Provo, Utah, U.S.A.

Now
27 °F

Passing clouds.


Feels Like: 27 °F
Forecast: 20 / 38 °F
Wind: No wind

Location: Provo Municipal

Current Time: Feb 8, 2016 at 7:54:53 PM

Latest Report: Feb 8, 2016 at 6:47 PM


Visibility: 7 mi

Pressure: 30.63 "Hg (25.70 "Hg at 1386m altitude)

Humidity: 74%

Dew point: 19 °F

Location of ProvoLocation

Historic Weather in Provo — Graph

°F

Provo Temperature Yesterday

Maximum temperature yesterday: 28 °F (at 1:49 PM)
Minimum temperature yesterday: 9 °F (at 6:15 AM)
Average temperature yesterday: 17 °F

High & Low Weather Summary for the Past Weeks

 TemperatureHumidityPressure
High43 °F (Jan 30, 4:35 AM)100% (Jan 30, 10:15 PM)30.74 "Hg (Jan 30, 10:15 PM)
Low3 °F (Feb 6, 5:15 AM)48% (Jan 25, 8:48 PM)29.48 "Hg (Feb 1, 4:15 AM)
Average21 °F83%30.26 "Hg
* Reported Jan 24 5:51 PM — Feb 8 5:47 PM, Provo, Weather by CustomWeather, © 2016

Note: Actual official high and low records may vary slightly from our data, if they occured in-between our weather recording intervals... More about our weather records

Advertising

Provo Weather History for the Previous 24 Hours

 ConditionsComfort  
Time TempWeatherWind HumidityBarometerVisibility
5:47 PM
Mon, Feb 8
27 °FPartly sunny.No wind74%30.63 "Hg7 mi
3:55 PM28 °FScattered clouds.No wind69%30.64 "Hg10 mi
2:56 PM28 °FScattered clouds.No wind74%30.65 "Hg8 mi
1:56 PM27 °FScattered clouds.No wind80%30.66 "Hg5 mi
12:56 PM25 °FScattered clouds.No wind80%30.69 "Hg7 mi
11:56 AM21 °FScattered clouds.No wind93%30.72 "Hg5 mi
10:50 AM19 °FScattered clouds.No wind93%30.74 "Hg4 mi
9:48 AM16 °FScattered clouds.No wind86%30.73 "Hg4 mi
8:48 AM14 °FIce fog.No wind92%30.72 "Hg4 mi
7:57 AM10 °FIce fog.No wind85%30.69 "Hg2 mi
6:49 AM21 °FIce fog.No wind86%30.69 "Hg1 mi
6:35 AM10 °FClear.3 mph85%30.69 "Hg5 mi
6:15 AM10 °FClear.No wind92%30.69 "Hg6 mi
5:55 AM10 °FClear.No wind92%30.68 "Hg5 mi
5:35 AM10 °FClear.No wind92%30.68 "Hg6 mi
5:15 AM12 °FClear.No wind85%30.67 "Hg7 mi
4:55 AM10 °FClear.No wind85%30.67 "Hg8 mi
4:35 AM10 °FClear.No wind92%30.67 "Hg5 mi
4:15 AM10 °FClear.No wind85%30.67 "Hg5 mi
3:55 AM10 °FClear.No wind85%30.68 "Hg10 mi
3:35 AM12 °FClear.No wind85%30.68 "Hg8 mi
3:15 AM12 °FClear.No wind85%30.68 "Hg8 mi
2:55 AM12 °FClear.No wind92%30.67 "Hg8 mi
2:35 AM10 °FClear.No wind92%30.68 "Hg8 mi
2:15 AM12 °FClear.3 mph85%30.67 "Hg9 mi
1:55 AM12 °FClear.5 mph92%30.67 "Hg8 mi
1:35 AM14 °FClear.3 mph85%30.68 "Hg9 mi
1:15 AM14 °FClear.3 mph92%30.68 "Hg7 mi
12:55 AM14 °FClear.No wind85%30.68 "Hg5 mi
12:35 AM14 °FClear.No wind79%30.68 "Hg4 mi
12:15 AM18 °FClear.No wind79%30.68 "Hg5 mi
11:55 PM
Sun, Feb 7
18 °FClear.No wind86%30.68 "Hg3 mi
11:35 PM16 °FClear.No wind79%30.67 "Hg5 mi
11:15 PM18 °FClear.No wind93%30.67 "Hg5 mi
10:55 PM16 °FClear.No wind93%30.67 "Hg7 mi
10:35 PM16 °FClear.No wind86%30.67 "Hg5 mi
10:15 PM18 °FClear.No wind93%30.67 "Hg5 mi
9:55 PM19 °FClear.No wind86%30.66 "Hg7 mi
9:35 PM19 °FClear.No wind86%30.66 "Hg10 mi
9:15 PM21 °FClear.No wind86%30.66 "Hg10 mi
7:49 PM21 °FClear.3 mph86%30.64 "Hg10 mi
Weather by CustomWeather, © 2016

See weather overviewHow to use our weather pages